User: anonymous   Login
Location: Koussan�
(15.2012°N, 12.5548°W)
Time: 01:03:16
(UTC+00:00)
Language:

Cosmos 1300 - Orbit

View from above orbital plane
View from above orbital plane
View from above satellite
View from above satellite

Ground track
Ground track

The orbit data is extracted from the following two-line orbital elements,

1 12785U 81082A   21021.43829321  .00000294  00000-0  12916-4 0  9998
2 12785  82.5018 212.7310 0001949  51.9925 352.0198 15.17920938150918
Epoch (UTC): 21 January 2021 10:31:08
Eccentricity: 0.0001949
inclination: 82.5018°
perigee height: 511 km
apogee height: 513 km
right ascension of ascending node: 212.7310°
argument of perigee: 51.9925°
revolutions per day: 15.17920938
mean anomaly at epoch: 352.0198°
orbit number at epoch: 15091

The dashed part of the orbit path shows where the satellite is in the earth's shadow,  

DLR